Location: Columbia
(38.9520°N, 92.3340°W)
Time: 16:44:27
(UTC-06:00)

SJ-11-01 - Visible Passes

Search period start: 01 February 2015 00:00
Search period end: 11 February 2015 00:00
Orbit: 684 x 701 km, 98.3° (Epoch: 01 February)

Date Brightness Start Highest point End Pass type
(mag) Time Alt. Az. Time Alt. Az. Time Alt. Az.
05 Feb 6.7 19:42:03 11° N 19:42:03 11° N 19:42:10 10° N visible
06 Feb 7.0 20:22:04 11° NNW 20:22:04 11° NNW 20:22:11 10° NNW visible
07 Feb 6.5 19:23:25 11° NNE 19:23:25 11° NNE 19:23:42 10° NNE visible
08 Feb 6.6 20:03:26 14° N 20:03:26 14° N 20:04:02 10° N visible
09 Feb 6.5 19:04:46 11° NNE 19:04:46 11° NNE 19:04:58 10° NNE visible
09 Feb 7.0 20:43:27 11° NNW 20:43:27 11° NNW 20:43:41 10° NNW visible
10 Feb 6.3 19:44:47 16° N 19:44:47 16° N 19:45:47 10° N visible
